Weather reports worldwide

Advertisment
Marina Di Ginosa, Italy (16325): temperature & dewpoint: 16.09.2018 23:00:00 - 22.09.2018 23:00:00 (CEST)Marina Di Ginosa, Italy (16325): wind speed: 16.09.2018 23:00:00 - 22.09.2018 23:00:00 (CEST)Marina Di Ginosa, Italy (16325): wind direction: 16.09.2018 23:00:00 - 22.09.2018 23:00:00 (CEST)Marina Di Ginosa, Italy (16325): reduced air pressure: 16.09.2018 23:00:00 - 22.09.2018 23:00:00 (CEST)Marina Di Ginosa, Italy (16325): visibility: 16.09.2018 23:00:00 - 22.09.2018 23:00:00 (CEST)
Date & Time tt [°C] td [°C] ff [km/h] ff [kn] dd ppp [hPa] vv [km]
22.09.2018 23:00:00 23,0 21,5 8 4 N 1018,1 20
22.09.2018 22:00:00 - - - - - - -
22.09.2018 21:00:00 - - - - - - -
22.09.2018 20:00:00 24,0 21,1 8 4 SW 1017,4 20
22.09.2018 19:00:00 - - - - - - -
22.09.2018 18:00:00 - - - - - - -
22.09.2018 17:00:00 28,0 21,8 13 7 S 1016,9 20
22.09.2018 16:00:00 - - - - - - -
22.09.2018 15:00:00 - - - - - - -
22.09.2018 14:00:00 28,8 21,8 8 4 SE 1017,3 20
22.09.2018 13:00:00 - - - - - - -
22.09.2018 12:00:00 - - - - - - -
22.09.2018 11:00:00 28,0 21,5 8 4 E 1017,4 20
22.09.2018 10:00:00 - - - - - - -
22.09.2018 09:00:00 - - - - - - -
22.09.2018 08:00:00 20,0 18,5 11 6 WNW 1016,4 12
22.09.2018 07:00:00 - - - - - - -
22.09.2018 06:00:00 - - - - - - -
22.09.2018 05:00:00 20,0 19,2 9 5 NW 1016,3 12
22.09.2018 04:00:00 - - - - - - -
22.09.2018 03:00:00 - - - - - - -
22.09.2018 02:00:00 21,0 20,0 9 5 NW 1015,4 12
22.09.2018 01:00:00 - - - - - - -
22.09.2018 00:00:00 - - - - - - -
21.09.2018 23:00:00 22,2 21,0 5 3 N 1016,2 12
21.09.2018 22:00:00 - - - - - - -
21.09.2018 21:00:00 - - - - - - -
21.09.2018 20:00:00 24,8 21,7 8 4 SSE 1015,0 20
21.09.2018 19:00:00 - - - - - - -
21.09.2018 18:00:00 - - - - - - -
21.09.2018 17:00:00 28,0 21,5 15 8 S 1014,9 18
21.09.2018 16:00:00 - - - - - - -
21.09.2018 15:00:00 - - - - - - -
21.09.2018 14:00:00 29,0 20,7 11 6 SSE 1015,9 15
21.09.2018 13:00:00 - - - - - - -
21.09.2018 12:00:00 - - - - - - -
21.09.2018 11:00:00 28,0 21,3 8 4 SE 1016,2 12
21.09.2018 10:00:00 - - - - - - -
21.09.2018 09:00:00 - - - - - - -
21.09.2018 08:00:00 21,0 19,3 8 4 NW 1015,7 15
21.09.2018 07:00:00 - - - - - - -
21.09.2018 06:00:00 - - - - - - -
21.09.2018 05:00:00 20,4 19,6 8 4 NW 1016,1 15
21.09.2018 04:00:00 - - - - - - -
21.09.2018 03:00:00 - - - - - - -
21.09.2018 02:00:00 21,4 20,6 9 5 NW 1016,4 20
21.09.2018 01:00:00 - - - - - - -
21.09.2018 00:00:00 - - - - - - -
20.09.2018 23:00:00 22,8 20,9 9 5 NW 1016,4 20
20.09.2018 22:00:00 - - - - - - -
20.09.2018 21:00:00 - - - - - - -
20.09.2018 20:00:00 26,0 22,5 8 4 NW 1016,3 20
20.09.2018 19:00:00 - - - - - - -
20.09.2018 18:00:00 - - - - - - -
20.09.2018 17:00:00 30,0 21,9 9 5 NNE 1016,3 20
20.09.2018 16:00:00 30,0 18,0 5 3 SE - 10
20.09.2018 15:00:00 30,0 18,0 8 4 SSE - 10
20.09.2018 14:00:00 31,2 17,9 11 6 S 1017,2 20
20.09.2018 13:00:00 30,0 20,0 9 5 S - 10
20.09.2018 12:00:00 - - - - - - -
20.09.2018 11:00:00 28,0 21,5 8 4 S 1017,7 20
20.09.2018 10:00:00 - - - - - - -
20.09.2018 09:00:00 - - - - - - -
20.09.2018 08:00:00 22,2 20,1 9 5 WNW 1017,3 20
20.09.2018 07:00:00 - - - - - - -
20.09.2018 06:00:00 23,0 21,0 8 4 NW - 10
20.09.2018 05:00:00 22,8 21,1 8 4 NW 1016,8 20
20.09.2018 04:00:00 - - - - - - -
20.09.2018 03:00:00 - - - - - - -
20.09.2018 02:00:00 24,8 21,3 9 5 NNW 1017,3 20
20.09.2018 01:00:00 - - - - - - -
20.09.2018 00:00:00 - - - - - - -
19.09.2018 23:00:00 24,6 20,1 5 3 WNW 1017,7 20
19.09.2018 22:00:00 25,0 20,0 8 4 NW - 10
19.09.2018 21:00:00 25,0 20,0 5 3 WNW - 10
19.09.2018 20:00:00 27,0 22,8 5 3 SW 1017,3 20
19.09.2018 19:00:00 27,0 22,0 8 4 SW - 10
19.09.2018 18:00:00 28,0 23,0 9 5 S - 10
19.09.2018 17:00:00 28,8 22,5 9 5 SE 1017,0 20
19.09.2018 16:00:00 30,0 24,0 11 6 SE - 10
19.09.2018 15:00:00 29,0 24,0 11 6 ESE - 10
19.09.2018 14:00:00 29,0 23,7 8 4 ESE 1018,2 15
19.09.2018 13:00:00 29,0 23,0 5 3 ESE - 10
19.09.2018 12:00:00 28,0 23,0 5 3 E - 10
19.09.2018 11:00:00 28,6 20,6 5 3 ESE 1018,5 15
19.09.2018 10:00:00 27,0 19,0 5 3 WSW - 10
19.09.2018 09:00:00 24,0 19,0 5 3 N - 10
19.09.2018 08:00:00 20,8 17,6 8 4 NNW 1018,2 20
19.09.2018 07:00:00 20,0 17,0 9 5 NW - 10
19.09.2018 06:00:00 20,0 17,0 9 5 WNW - 10
19.09.2018 05:00:00 20,0 16,4 11 6 NW 1018,0 20
19.09.2018 04:00:00 20,0 16,0 9 5 NW - 10
19.09.2018 03:00:00 20,0 17,0 11 6 NW - 10
19.09.2018 02:00:00 21,0 17,4 9 5 NW 1018,4 20
19.09.2018 01:00:00 21,0 18,0 11 6 WNW - 10
19.09.2018 00:00:00 22,0 19,0 5 3 NW - 10
18.09.2018 23:00:00 23,0 20,0 8 4 NE 1018,4 20
18.09.2018 22:00:00 23,0 20,0 8 4 NW - 10
18.09.2018 21:00:00 24,0 21,0 5 3 W - 10
18.09.2018 20:00:00 24,6 20,5 4 2 WSW 1017,9 20
18.09.2018 19:00:00 - - - - - - -
18.09.2018 18:00:00 - - - - - - -
18.09.2018 17:00:00 28,6 20,6 11 6 SSE 1017,8 20
18.09.2018 16:00:00 - - - - - - -
18.09.2018 15:00:00 - - - - - - -
18.09.2018 14:00:00 30,0 13,7 11 6 SE 1018,9 20
18.09.2018 13:00:00 - - - - - - -
18.09.2018 12:00:00 - - - - - - -
18.09.2018 11:00:00 28,0 20,3 8 4 E 1019,8 20
18.09.2018 10:00:00 - - - - - - -
18.09.2018 09:00:00 - - - - - - -
18.09.2018 08:00:00 18,6 15,8 8 4 WNW 1019,3 15
18.09.2018 07:00:00 - - - - - - -
18.09.2018 06:00:00 - - - - - - -
18.09.2018 05:00:00 19,2 16,8 9 5 NW 1018,3 20
18.09.2018 04:00:00 - - - - - - -
18.09.2018 03:00:00 - - - - - - -
18.09.2018 02:00:00 20,8 18,0 5 3 NW 1018,4 20
18.09.2018 01:00:00 - - - - - - -
18.09.2018 00:00:00 - - - - - - -
17.09.2018 23:00:00 24,0 21,1 5 3 E 1018,9 20
17.09.2018 22:00:00 - - - - - - -
17.09.2018 21:00:00 - - - - - - -
17.09.2018 20:00:00 26,0 17,6 8 4 WSW 1018,3 20
17.09.2018 19:00:00 - - - - - - -
17.09.2018 18:00:00 - - - - - - -
17.09.2018 17:00:00 31,0 18,0 11 6 S 1018,6 20
17.09.2018 16:00:00 - - - - - - -
17.09.2018 15:00:00 - - - - - - -
17.09.2018 14:00:00 31,2 18,9 9 5 S 1020,4 20
17.09.2018 13:00:00 - - - - - - -
17.09.2018 12:00:00 - - - - - - -
17.09.2018 11:00:00 29,6 22,3 8 4 SE 1020,6 10
17.09.2018 10:00:00 - - - - - - -
17.09.2018 09:00:00 - - - - - - -
17.09.2018 08:00:00 19,4 17,7 9 5 NW 1020,4 15
17.09.2018 07:00:00 - - - - - - -
17.09.2018 06:00:00 - - - - - - -
17.09.2018 05:00:00 20,8 19,6 9 5 NNW 1020,3 10
17.09.2018 04:00:00 - - - - - - -
17.09.2018 03:00:00 - - - - - - -
17.09.2018 02:00:00 21,8 19,7 5 3 WNW 1020,2 15
17.09.2018 01:00:00 - - - - - - -
17.09.2018 00:00:00 - - - - - - -
16.09.2018 23:00:00 25,0 21,5 9 5 NNW 1020,3 18

tt = temperature
td = dewpoint
ff = wind speed
dd = wind direction
ppp = reduced air pressure
vv = visibility

Next stations